Flag for Argentina Weather past 2 weeks in Comodoro Rivadavia, Chubut, Argentina

Now
61 °F

Clear.


Feels Like: 61 °F
Forecast: 63 / 78 °F
Wind: 39 mph from West

Location: Comodoro Rivadavia Aerodrome

Current Time: Dec 18, 2014 at 4:52:46 AM

Latest Report: Dec 18, 2014 at 4:00 AM


Visibility: 10 mi

Pressure: 29.53 "Hg

Humidity: 39%

Dew point: 36 °F

Location of Comodoro RivadaviaLocation

Historic Weather in Comodoro Rivadavia — Graph

°F

Comodoro Rivadavia temperature yesterday

Maximum temperature yesterday: 81 °F (at 4:00 PM)
Minimum temperature yesterday: 57 °F (at 5:00 AM)
Average temperature yesterday: 70 °F

Past Weeks' High & Low Weather Summary

 TemperatureHumidityPressure
High84 °F (Dec 15, 3:00 PM)88% (Dec 14, 5:00 AM)30.15 "Hg (Dec 14, 5:00 AM)
Low48 °F (Dec 10, 6:00 AM)14% (Dec 7, 5:00 PM)29.50 "Hg (Dec 7, 4:00 AM)
Average67 °F39%29.78 "Hg
* Reported Dec 3 3:00 AM — Dec 18 3:00 AM, Comodoro Rivadavia, Weather by CustomWeather, © 2014

Note: Actual official high and low records may vary slightly from our data, if they occured in-between our weather recording intervals... More about our weather records

Advertising

Comodoro Rivadavia weather history for previous 24 hours

 ConditionsComfort  
Time TempWeatherWind HumidityBarometerVisibility
3:00 AM
Dec 18
63 °FClear.14 mph42%29.62 "Hg10 mi
2:00 AM63 °FClear.16 mph45%29.68 "Hg10 mi
1:00 AM63 °FClear.18 mph49%29.71 "Hg10 mi
12:00 AM64 °FClear.22 mph43%29.74 "Hg10 mi
11:00 PM
Dec 17
66 °FClear.22 mph37%29.77 "Hg10 mi
10:00 PM70 °FClear.18 mph40%29.77 "Hg10 mi
9:00 PM73 °FClear.21 mph38%29.77 "Hg10 mi
8:00 PM79 °FPassing clouds.16 mph28%29.74 "HgN/A
7:00 PM79 °FPassing clouds.16 mph24%29.74 "HgN/A
6:00 PM79 °FPassing clouds.18 mph32%29.77 "HgN/A
5:00 PM81 °FPassing clouds.22 mph23%29.77 "HgN/A
4:00 PM81 °FPassing clouds.18 mph21%29.80 "HgN/A
3:00 PM79 °FPassing clouds.15 mph28%29.83 "HgN/A
2:00 PM79 °FPassing clouds.16 mph23%29.89 "HgN/A
1:00 PM77 °FPassing clouds.10 mph28%29.92 "HgN/A
12:00 PM73 °FPassing clouds.7 mph38%29.95 "HgN/A
11:00 AM72 °FPassing clouds.7 mph38%29.98 "HgN/A
10:00 AM66 °FSunny.3 mph49%30.01 "Hg10 mi
9:00 AM64 °FSunny.8 mph49%30.04 "Hg10 mi
8:00 AM63 °FSunny.13 mph45%30.04 "Hg10 mi
7:00 AM61 °FSunny.10 mph45%30.04 "Hg10 mi
6:00 AM59 °FPassing clouds.6 mph51%30.01 "HgN/A
5:00 AM57 °FSunny.13 mph48%30.01 "Hg10 mi
4:00 AM59 °FPassing clouds.7 mph51%29.98 "HgN/A
Weather by CustomWeather, © 2014

See weather overviewHow to use our weather pages